User: anonymous   Login
Location: ????????
(54.9045°N, 39.1041°E)
Time: 03:48:07
(UTC+00:00)
Language:

Cosmos 2219 Rocket - Orbit

View from above orbital plane
View from above orbital plane
View from above satellite
View from above satellite

Ground track
Ground track

The orbit data is extracted from the following two-line orbital elements,

1 22220U 92076B   24164.89875031  .00000349  00000-0  19855-3 0  9997
2 22220  71.0007  85.3764 0013611 333.9325  89.1167 14.16663911631929
Epoch (UTC): 12 June 2024 21:34:12
Eccentricity: 0.0013611
inclination: 71.0007°
perigee height: 827 km
apogee height: 846 km
right ascension of ascending node: 85.3764°
argument of perigee: 333.9325°
revolutions per day: 14.16663911
mean anomaly at epoch: 89.1167°
orbit number at epoch: 63192

The dashed part of the orbit path shows where the satellite is in the earth's shadow,  

DLR